www.pogodaiklimat.ru

Погода и климат >> Архив погоды >> Россия >> Крым >> Симферополь


АРХИВ ПОГОДЫ в Симферополе

Время (UTC), дата Ветер
(напр.,м/с)
 
Видим.   Явления Облачность Т
(С)
Тd
(С)
f
(%)
Тe
(С)
Тes
(С)
Комфортность P
(гПа)
Po
(гПа)
Тmin
(С)
Tmax
(С)
R
(мм)
R24
(мм)
S
(см)
21 12.08 СВ 3 10 км ясно +22.1 +18.3 79 +27 +27 душно 1007.4 986.7
00 13.08 СВ 4 10 км ясно +20.5 +18.3 87 +24 +24 комфорт 1006.0 985.2
03 13.08 СВ 4 10 км 3/0
[Ac cast]
+19.4 +17.9 91 +22 +22 комфорт 1005.0 984.2
06 13.08 СВ 7 10 км 4/0
[Ac cast]
+26.6 +18.5 61 +31 +33 душно 1004.4 984.1 +19.3
09 13.08 СВ 6 10 км 3/0
[Cc]
+32.4 +16.7 39 +36 +41 очень
душно
1003.4 983.5
12 13.08 С 5-10
{10}
10 км 5/0
[Ac trans]
+35.3 +18.0 36 +39 +44 очень
душно
1002.7 983.0
15 13.08 З 6
{13}
10 км 9/0
[Ac As]
+29.3 +18.4 52 +34 +34 очень
душно
1004.2 984.1
18 13.08 З 2 10 км ясно +24.3 +20.0 77 +30 +30 очень
душно
1005.8 985.3 +36.4
21 13.08 Ю 2 10 км ясно +22.9 +20.1 84 +30 +30 очень
душно
1006.3 985.7
00 14.08 Ю 2 10 км ясно +22.0 +19.0 83 +27 +27 душно 1006.3 985.6
03 14.08 В 3 10 км ясно +21.0 +18.9 88 +26 +26 душно 1006.3 985.6
06 14.08 ЮЗ 3 10 км ясно +26.3 +20.9 72 +33 +39 очень
душно
1007.1 986.7 +20.6
09 14.08 Ю 3 10 км ясно +31.2 +17.9 45 +35 +48 очень
душно
1007.2 987.1
12 14.08 З 8-12
{12}
10 км 3/3 1000 м
[Cb cap]
+30.9 +19.3 50 +37 +38 очень
душно
1007.0 986.9
15 14.08 З 5
{13}
10 км 1/1 1000 м
[Cb calv]
+28.7 +17.9 52 +33 +34 очень
душно
1008.4 988.1
18 14.08 З 3 10 км 3/0
[Ac trans]
+23.8 +21.1 85 +30 +30 очень
душно
1009.6 989.0 +32.7
21 14.08 штиль 0 10 км ясно +21.8 +21.0 95 +28 +28 душно 1010.2 989.5
00 15.08 Ю 2 10 км 3/3 300 м
[St]
+21.2 +20.5 96 +26 +26 душно 1010.4 989.6
03 15.08 Ю 2 10 км 3/0
[Ac lent]
+20.4 +19.4 94 +25 +25 комфорт 1010.1 989.2
06 15.08 СВ 2 10 км 8/1 1000 м
[Cb calv Ac trans Ci fib]
+25.6 +19.3 68 +31 +34 очень
душно
1010.8 990.3 +19.5
09 15.08 В 4 10 км 10/3 1000 м
[Cb calv Ci fib]
+29.4 +18.5 52 +34 +40 очень
душно
1009.5 989.3
12 15.08 З 7-12
{13}
10 км гроза, ливневой дождь 10/5 900 м
[Cb cap Ac cast Ci ing]
+20.5 +17.9 85 +24 +25 комфорт 1010.5 989.6
15 15.08 В 1 10 км слабый ливневой дождь {гроза} 10/10 1500 м
[Cb cap]
+20.6 +17.6 83 +25 +25 комфорт 1012.3 991.4
18 15.08 СВ 5 10 км зарница {гроза, ливн. осадки} 10/3 1000 м
[Cb cap Ac trans Ci fib]
+20.1 +18.9 93 +23 +23 комфорт 1013.1 992.2 +32.9 0.6
21 15.08 СВ 3 10 км слабый ливневой дождь {гроза} 10/5 600 м
[Cb calv Ac und]
+20.8 +20.0 95 +26 +26 душно 1013.1 992.2
00 16.08 С 3 10 км в посл. час ливневой дождь {гроза} 10/4 600 м
[Cb calv Ac und]
+20.0 +18.5 91 +23 +23 комфорт 1011.9 991.0
03 16.08 СВ 3 10 км 9/1 1000 м
[Cb calv Ac trans]
+19.4 +18.1 92 +22 +22 комфорт 1011.3 990.3 +19.2 2
06 16.08 СВ 6 10 км 8/0
[Ac trans]
+25.2 +20.9 77 +32 +33 очень
душно
1011.4 990.9 +19.2 2
09 16.08 СВ 10 10 км 5/0
[Ac trans]
+30.9 +14.1 36 +33 +33 душно 1011.1 990.9
12 16.08 СВ 12-15
{18}
10 км 4/1 1500 м
[Cu hum Ac trans]
+31.5 +10.8 28 +31 +31 жарко 1010.7 990.5
15 16.08 СВ 10 10 км 3/0
[Ac trans]
+29.2 +11.7 34 +30 +30 жарко 1011.1 990.8
18 16.08 СВ 4
{15}
10 км 3/0
[Ac trans]
+23.5 +13.1 52 +26 +26 жарко 1012.2 991.5 +32.4
21 16.08 СВ 4 10 км 4/0
[Ac trans]
+19.7 +14.5 72 +22 +22 комфорт 1012.1 991.1
00 17.08 СВ 5 10 км ясно +18.2 +14.5 79 +18 +18 тепло 1011.4 990.3
03 17.08 СВ 5 10 км 5/0
[Ci sp]
+17.7 +15.1 85 +17 +17 прохладно 1011.5 990.4
06 17.08 СВ 6 10 км 10/0
[Ci fib]
+25.8 +19.2 67 +31 +33 очень
душно
1011.1 990.6 +17.5
09 17.08 В 14 10 км 10/0
[Cc]
+29.9 +17.9 49 +30 +30 жарко 1010.1 989.8
12 17.08 СВ 12-16
{19}
10 км 9/1 1500 м
[Cu hum Cc]
+30.6 +14.3 37 +32 +32 жарко 1010.2 990.0
15 17.08 СВ 10-12
{16}
10 км 10/0
[Ac trans Cc]
+29.4 +11.5 33 +30 +30 жарко 1010.5 990.2
18 17.08 В 4
{14}
10 км зарница 10/1 1000 м
[Cb calv Ac trans Ci fib]
+24.9 +12.8 47 +27 +27 жарко 1011.8 991.2 +32.0
21 17.08 СВ 3 10 км зарница 10/3 1000 м
[Cb calv Ac trans Ci fib]
+22.3 +16.1 68 +26 +26 жарко 1011.4 990.6
00 18.08 В 6
{10}
10 км гроза без осадков 8/4 1000 м
[Cb cap Ac trans]
+22.2 +14.1 60 +25 +25 комфорт 1011.2 990.4
03 18.08 СВ 8 10 км гроза без осадков 10/6 1000 м
[Cb cap Ac cuf]
+21.6 +15.9 70 +25 +25 комфорт 1011.7 990.9
06 18.08 С 5
{12}
10 км гроза, ливневой дождь 10/6 1200 м
[Cb cap Ac und]
+21.1 +16.9 77 +25 +25 комфорт 1012.8 991.9 +20.7 0.1
09 18.08 СВ 4 10 км гроза без осадков {ливн. осадки} 10/5 1000 м
[Cb cap Ac und]
+23.8 +18.0 70 +28 +30 душно 1012.7 992.0
12 18.08 С 5 10 км в посл. час гроза {ливн. осадки} 10/5 1000 м
[Cb calv Ac trans Ci fib]
+26.0 +20.3 71 +32 +34 очень
душно
1012.6 992.1
15 18.08 В 6 10 км гроза, ливневой дождь 10/10 1000 м
[Cb cap]
+22.8 +18.6 77 +29 +29 очень
душно
1012.6 991.9
18 18.08 СВ 8-10
{12}
10 км зарница {гроза, ливн. осадки} 10/5 1000 м
[Cb cap Ac und]
+21.0 +16.8 77 +24 +24 комфорт 1013.3 992.4 +29.2 0.3
21 18.08 В 6 10 км гроза без осадков 10/5 1000 м
[Cb cap Ac und]
+22.6 +15.5 64 +27 +27 душно 1013.5 992.7
00 19.08 СВ 3 10 км слабый ливневой дождь, в посл. час гроза 10/4 1000 м
[Cb cap Ac und]
+20.2 +16.2 78 +23 +23 комфорт 1013.5 992.5
03 19.08 В 4 10 км {ливн. осадки} 10/1 1000 м
[Cb calv Ac und]
+19.7 +16.7 83 +22 +22 комфорт 1013.4 992.4
06 19.08 В 7-10
{10}
10 км {ливн. осадки} 8/0
[Ac cast]
+24.9 +17.9 65 +29 +30 душно 1013.6 993.0 +19.2 0.4
09 19.08 В 10 10 км 5/0
[Ac cast]
+29.8 +14.8 40 +32 +32 душно 1013.3 993.0
12 19.08 СВ 10-14
{16}
10 км 1/1 1500 м
[Cu hum]
+29.5 +16.0 44 +33 +33 душно 1013.0 992.7
15 19.08 В 9-12
{15}
10 км 5/1 1000 м
[Cu med, cong Ci fib]
+28.1 +16.7 50 +32 +32 душно 1013.0 992.6

 

Местоположение метеостанции Симферополь (Крым, Россия): широта 45.03 долгота 33.97 высота над уровнем моря 181 м.

В архиве по умолчанию представлена погода в Симферополе за последнюю неделю. Архивные данные за месяц целиком и за предыдущие месяцы, начиная с января 2011 года, Вы можете получить, выбрав интересующий диапазон дат из раскрывающегося списка и нажав кнопку "Ввод!".

Внимание! Время в таблицах - всемирное. Для получения местного времени необходимо прибавить поправку, которая в Симферополе равна 3 ч.

Смотрите также архив погоды в соседних городах и на ближайших метеорологических станциях:

Погода в Белогорске (Крым, Россия) (50 км)
Погода в Евпатории (Крым, Россия) (50 км)
Погода в Алуште (Крым, Россия) (52 км)
Погода в Севастополе (город Севастополь, Россия) (57 км)
Погода в Клепинино (Крым, Россия) (58 км)
Погода в Никитском саду (Крым, Россия) (61 км)
Погода в Ай-Петри (Крым, Россия) (63 км)
Погода в Ялте (Крым, Россия) (63 км)
Погода в Херсонесском Маяке (город Севастополь, Россия) (68 км)
Погода в Стрелковом (Херсонская область, Украина) (74 км)

Пояснения к столбцам:

Ветер - указаны скорость ветра в м/с - средняя за 10 мин, порывы в срок и между сроками (в фигурных скобках) и направление, откуда дует ветер: С - северный, СВ - северо-восточный, В - восточный, ЮВ - юго-восточный, Ю - южный, ЮЗ - юго-западный, З - западный, СЗ - северо-западный.
Видимость - горизонтальная дальность видимости в метрах или километрах. При видимости от 1 до 10 км при отсутствии осадков обычно наблюдается дымка, при ухудшении видимости до 1 км и менее - туман. В сухую погоду видимость может ухудшаться дымом, пылью или мглою.
Явления - указаны атмосферные явления, наблюдавшиеся в срок или в последний час перед сроком; фигурными скобками обозначены явления, наблюдавшиеся между сроками (за 1-3 часа до срока); квадратными скобками обозначены град или гололедные отложения с указанием их диаметра в мм.
Облачность - указаны через наклонную черту общая и нижняя облачность в баллах и высота нижней границы облаков в метрах; квадратными скобками обозначены формы облаков: Ci - перистые, Cs - перисто-слоистые, Cc - перисто-кучевые, Ac - высококучевые, As - высокослоистые, Sc - слоисто-кучевые, Ns - слоисто-дождевые, Cu - кучевые, Cb - кучево-дождевые. Подробнее классификацию облаков см. в Атласе облаков (PDF).
T - Температура воздуха - температура, измеренная на высоте 2 м над землей.
Td - Температура точки росы - температура, при понижении до которой содержащийся в воздухе водяной пар достигнет насыщения.
f - Относительная влажность воздуха - влажноcть воздуха, измеренная на высоте 2 м над землей.
Te - Эффективная температура - температура, которую ощущает одетый по сезону человек в тени. Характеристика душности погоды. При расчете учитывается влияние влажности воздуха и скорости ветра на теплоощущения человека.
Tes - Эффективная температура на солнце - температура, которую ощущает человек, с поправкой на солнечный нагрев. Характеристика знойности погоды. Зависит от высоты солнца над горизонтом, облачности и скорости ветра. Ночью, в пасмурную погоду, а также при ветре 12 м/с и более поправка равна нулю.
P - Атмосферное давление - приведенное к уровню моря атмосферное давление.
Po - Атмосферное давление - измеренное на уровне метеостанции атмосферное давление.
Tmin - Минимальная температура - минимум температуры воздуха на высоте 2 м над землей.
Tmax - Максимальная температура - максимум температуры воздуха на высоте 2 м над землей.
R - Количество осадков - Количество выпавших осадков за период времени, мм. При наведении курсора мыши на число - период времени, за который выпало указанное количество осадков.
R24 - Количество осадков - Количество выпавших осадков за 24 часа, мм.
S - Снежный покров - Высота снежного покрова, см. При наведении курсора мыши на число - состояние снежного покрова и степень покрытия местности в баллах.